| time (UTC) | temp F | wind direction | speed MPH | gust MPH | rain 1hr in | rain 24hr in | rain mn in | humidity % | barometer mb |
| 20260505164436 | 68 | 251 | 3.0 | 3.0 | 0.00 | 0.04 | 0.04 | 64 | 1058.7 |
| 20260505163432 | 68 | 254 | 3.0 | 3.0 | 0.00 | 0.04 | 0.04 | 64 | 1058.8 |
| 20260505162432 | 68 | 252 | 6.0 | 7.0 | 0.00 | 0.04 | 0.04 | 64 | 1058.9 |
| 20260505161432 | 69 | 236 | 11.0 | 13.0 | 0.00 | 0.04 | 0.04 | 63 | 1058.9 |
| 20260505160428 | 69 | 233 | 11.0 | 14.0 | 0.00 | 0.04 | 0.04 | 63 | 1058.9 |
| 20260505152425 | 68 | 263 | 5.0 | 7.0 | 0.00 | 0.04 | 0.04 | 64 | 1059.1 |
| 20260505151421 | 68 | 263 | 8.0 | 10.0 | 0.00 | 0.04 | 0.04 | 64 | 1059.2 |
| 20260505150421 | 68 | 242 | 10.0 | 13.0 | 0.00 | 0.04 | 0.04 | 65 | 1059.0 |
| 20260505140409 | 65 | 265 | 4.0 | 6.0 | 0.00 | 0.04 | 0.04 | 71 | 1059.2 |
| 20260505124355 | 59 | 274 | 3.0 | 5.0 | 0.00 | 0.04 | 0.04 | 82 | 1059.5 |
| 20260505123352 | 58 | 250 | 3.0 | 3.0 | 0.00 | 0.04 | 0.04 | 83 | 1059.7 |
| 20260505122352 | 57 | 273 | 1.0 | 2.0 | 0.00 | 0.04 | 0.04 | 85 | 1059.7 |
| 20260505121351 | 57 | 261 | 3.0 | 3.0 | 0.00 | 0.04 | 0.04 | 86 | 1059.5 |
| 20260505120349 | 56 | 269 | 4.0 | 5.0 | 0.00 | 0.04 | 0.04 | 87 | 1059.6 |
| 20260505115345 | 57 | 261 | 4.0 | 5.0 | 0.00 | 0.04 | 0.04 | 87 | 1059.7 |
| 20260505114345 | 57 | 261 | 3.0 | 3.0 | 0.00 | 0.04 | 0.04 | 87 | 1059.3 |
| 20260505113344 | 56 | 260 | 2.0 | 2.0 | 0.00 | 0.04 | 0.04 | 88 | 1059.7 |
| 20260505112343 | 54 | 258 | 2.0 | 2.0 | 0.00 | 0.04 | 0.04 | 98 | 1059.0 |
| 20260505111340 | 52 | 252 | 0.0 | 1.0 | 0.00 | 0.04 | 0.04 | 99 | 1059.3 |
| 20260505110339 | 52 | 250 | 1.0 | 2.0 | 0.00 | 0.04 | 0.04 | 99 | 1059.6 |
| 20260505101333 | 52 | 265 | 1.0 | 1.0 | 0.00 | 0.04 | 0.04 | 99 | 1059.3 |
| 20260505100332 | 52 | 225 | 1.0 | 1.0 | 0.00 | 0.04 | 0.04 | 99 | 1059.3 |
| 20260505095331 | 52 | 245 | 0.0 | 0.0 | 0.00 | 0.03 | 0.03 | 99 | 1059.2 |
| 20260505094330 | 53 | 243 | 1.0 | 1.0 | 0.17 | 0.03 | 0.03 | 96 | 1059.7 |
| 20260505093329 | 54 | 265 | 4.0 | 6.0 | 0.00 | 0.00 | 0.00 | 87 | 1059.9 |
| 20260505092324 | 54 | 267 | 2.0 | 2.0 | 0.00 | 0.00 | 0.00 | 84 | 1059.5 |
| 20260505091319 | 53 | 267 | 1.0 | 2.0 | 0.00 | 0.00 | 0.00 | 86 | 1059.7 |
| 20260505090315 | 51 | 272 | 0.0 | 1.0 | 0.00 | 0.00 | 0.00 | 93 | 1059.5 |
| 20260505085310 | 51 | 269 | 1.0 | 1.0 | 0.00 | 0.00 | 0.00 | 95 | 1059.3 |
| 20260505084306 | 52 | 266 | 1.0 | 1.0 | 0.00 | 0.00 | 0.00 | 92 | 1059.7 |
| 20260505083306 | 53 | 269 | 0.0 | 0.0 | 0.00 | 0.00 | 0.00 | 88 | 1059.9 |
| 20260505082305 | 52 | 268 | 0.0 | 0.0 | 0.00 | 0.00 | 0.00 | 90 | 1059.9 |
| 20260505081303 | 52 | 275 | 1.0 | 1.0 | 0.00 | 0.00 | 0.00 | 92 | 1059.9 |
| 20260505080302 | 51 | 272 | 1.0 | 1.0 | 0.00 | 0.00 | 0.00 | 95 | 1059.7 |
| 20260505075301 | 52 | 272 | 0.0 | 1.0 | 0.00 | 0.00 | 0.00 | 93 | 1059.8 |
| 20260505074301 | 53 | 278 | 0.0 | 1.0 | 0.00 | 0.00 | 0.00 | 91 | 1059.8 |
| 20260505073256 | 56 | 266 | 0.0 | 0.0 | 0.00 | 0.00 | 0.00 | 79 | 1059.8 |
| 20260505072255 | 57 | 256 | 1.0 | 2.0 | 0.00 | 0.00 | 0.00 | 70 | 1059.6 |
| 20260505071253 | 57 | 204 | 2.0 | 2.0 | 0.00 | 0.00 | 0.00 | 71 | 1059.1 |
| 20260505070253 | 57 | 262 | 1.0 | 2.0 | 0.00 | 0.00 | 0.00 | 70 | 1059.2 |
| 20260505065251 | 57 | 259 | 0.0 | 0.0 | 0.00 | 0.00 | 0.00 | 70 | 1059.5 |
| 20260505064246 | 57 | 205 | 1.0 | 1.0 | 0.00 | 0.00 | 0.00 | 69 | 1059.5 |
| 20260505063246 | 57 | 264 | 1.0 | 1.0 | 0.00 | 0.00 | 0.00 | 69 | 1059.2 |
| 20260505062246 | 57 | 266 | 1.0 | 1.0 | 0.00 | 0.00 | 0.00 | 68 | 1059.2 |
| 20260505061240 | 57 | 267 | 2.0 | 2.0 | 0.00 | 0.00 | 0.00 | 67 | 1059.5 |
| 20260505060240 | 57 | 269 | 2.0 | 2.0 | 0.00 | 0.00 | 0.00 | 67 | 1059.7 |
| 20260505055238 | 57 | 271 | 1.0 | 1.0 | 0.00 | 0.00 | 0.00 | 68 | 1059.6 |
| 20260505054233 | 57 | 249 | 1.0 | 1.0 | 0.00 | 0.00 | 0.00 | 68 | 1059.5 |
| 20260505053233 | 57 | 278 | 0.0 | 0.0 | 0.00 | 0.00 | 0.00 | 67 | 1059.7 |
| 20260505052233 | 57 | 272 | 1.0 | 1.0 | 0.00 | 0.00 | 0.00 | 67 | 1059.8 |
| 20260505051228 | 57 | 256 | 1.0 | 1.0 | 0.00 | 0.00 | 0.00 | 67 | 1059.3 |
| 20260505050224 | 58 | 276 | 0.0 | 1.0 | 0.00 | 0.00 | 0.00 | 65 | 1059.8 |
| 20260505041220 | 58 | 270 | 0.0 | 1.0 | 0.00 | 0.00 | 0.00 | 63 | 1059.7 |
| 20260505040220 | 58 | 255 | 2.0 | 2.0 | 0.00 | 0.00 | 0.00 | 63 | 1059.5 |
| 20260505035218 | 58 | 272 | 0.0 | 0.0 | 0.00 | 0.00 | 0.00 | 64 | 1059.2 |
| 20260505034218 | 57 | 230 | 0.0 | 0.0 | 0.00 | 0.00 | 0.00 | 66 | 1059.1 |
| 20260505033213 | 57 | 220 | 1.0 | 1.0 | 0.00 | 0.00 | 0.00 | 66 | 1059.3 |
| 20260505032212 | 57 | 255 | 0.0 | 0.0 | 0.00 | 0.00 | 0.00 | 66 | 1059.1 |
| 20260505031211 | 56 | 225 | 2.0 | 2.0 | 0.00 | 0.00 | 0.00 | 67 | 1059.2 |
| 20260505030210 | 54 | 269 | 0.0 | 1.0 | 0.00 | 0.00 | 0.00 | 71 | 1059.5 |
| 20260505025205 | 51 | 274 | 1.0 | 1.0 | 0.00 | 0.00 | 0.00 | 76 | 1059.6 |
| 20260505024205 | 51 | 281 | 0.0 | 1.0 | 0.00 | 0.00 | 0.00 | 81 | 1059.6 |
| 20260505023200 | 52 | 294 | 1.0 | 1.0 | 0.00 | 0.00 | 0.00 | 79 | 1059.7 |
| 20260505022159 | 52 | 285 | 1.0 | 1.0 | 0.00 | 0.00 | 0.00 | 78 | 1059.6 |
| 20260505021159 | 52 | 304 | 1.0 | 2.0 | 0.00 | 0.00 | 0.00 | 77 | 1059.7 |
| 20260505020156 | 52 | 283 | 1.0 | 1.0 | 0.00 | 0.00 | 0.00 | 79 | 1059.8 |
| 20260505015156 | 52 | 305 | 1.0 | 2.0 | 0.00 | 0.00 | 0.00 | 80 | 1059.9 |
| 20260505014156 | 52 | 294 | 1.0 | 1.0 | 0.00 | 0.00 | 0.00 | 77 | 1060.0 |
| 20260505013156 | 52 | 279 | 0.0 | 0.0 | 0.00 | 0.00 | 0.00 | 79 | 1059.9 |
| 20260505012152 | 53 | 298 | 1.0 | 1.0 | 0.00 | 0.00 | 0.00 | 77 | 1059.7 |
| 20260505011149 | 54 | 264 | 0.0 | 0.0 | 0.00 | 0.00 | 0.00 | 78 | 1059.8 |
| 20260505010148 | 54 | 264 | 0.0 | 0.0 | 0.00 | 0.00 | 0.00 | 76 | 1059.8 |
| 20260505005147 | 55 | 267 | 0.0 | 0.0 | 0.00 | 0.00 | 0.00 | 74 | 1060.1 |
| 20260505004146 | 55 | 264 | 0.0 | 0.0 | 0.00 | 0.00 | 0.00 | 73 | 1059.9 |
| 20260505003141 | 56 | 264 | 0.0 | 0.0 | 0.00 | 0.00 | 0.00 | 70 | 1059.8 |
| 20260505002141 | 57 | 264 | 0.0 | 0.0 | 0.00 | 0.00 | 0.00 | 71 | 1059.6 |
| 20260505001141 | 59 | 264 | 0.0 | 0.0 | 0.00 | 0.00 | 0.00 | 66 | 1059.6 |
| 20260505000136 | 60 | 264 | 0.0 | 0.0 | 0.00 | 0.00 | 0.00 | 62 | 1059.6 |
| 20260504235134 | 62 | 264 | 0.0 | 0.0 | 0.00 | 0.00 | 0.00 | 57 | 1059.7 |
| 20260504234129 | 64 | 264 | 1.0 | 1.0 | 0.00 | 0.00 | 0.00 | 53 | 1059.8 |
| 20260504233126 | 64 | 256 | 3.0 | 3.0 | 0.00 | 0.00 | 0.00 | 52 | 1059.5 |
| 20260504232121 | 65 | 259 | 1.0 | 1.0 | 0.00 | 0.00 | 0.00 | 51 | 1059.6 |
| 20260504231120 | 65 | 262 | 3.0 | 3.0 | 0.00 | 0.00 | 0.00 | 51 | 1059.6 |
| 20260504230115 | 65 | 243 | 4.0 | 5.0 | 0.00 | 0.00 | 0.00 | 50 | 1059.5 |
| 20260504225115 | 65 | 246 | 4.0 | 6.0 | 0.00 | 0.00 | 0.00 | 50 | 1059.6 |
| 20260504224114 | 65 | 248 | 2.0 | 5.0 | 0.00 | 0.00 | 0.00 | 50 | 1059.5 |
| 20260504223113 | 66 | 234 | 7.0 | 7.0 | 0.00 | 0.00 | 0.00 | 50 | 1059.5 |
| 20260504222113 | 66 | 262 | 3.0 | 3.0 | 0.00 | 0.00 | 0.00 | 51 | 1059.7 |
| 20260504221113 | 65 | 251 | 7.0 | 8.0 | 0.00 | 0.00 | 0.00 | 50 | 1059.8 |
| 20260504220113 | 65 | 259 | 5.0 | 7.0 | 0.00 | 0.00 | 0.00 | 50 | 1059.3 |
| 20260504215113 | 66 | 282 | 3.0 | 3.0 | 0.00 | 0.00 | 0.00 | 51 | 1059.5 |
| 20260504214110 | 66 | 243 | 4.0 | 6.0 | 0.00 | 0.00 | 0.00 | 50 | 1059.2 |
| 20260504213110 | 66 | 237 | 5.0 | 7.0 | 0.00 | 0.00 | 0.00 | 49 | 1059.3 |
| 20260504212109 | 66 | 287 | 1.0 | 1.0 | 0.00 | 0.00 | 0.00 | 50 | 1059.6 |
| 20260504211109 | 66 | 215 | 5.0 | 8.0 | 0.00 | 0.00 | 0.00 | 49 | 1059.8 |
| 20260504210108 | 66 | 249 | 3.0 | 5.0 | 0.00 | 0.00 | 0.00 | 52 | 1059.5 |
| 20260504205103 | 65 | 247 | 6.0 | 6.0 | 0.00 | 0.00 | 0.00 | 53 | 1059.6 |
| 20260504204100 | 65 | 235 | 3.0 | 5.0 | 0.00 | 0.00 | 0.00 | 51 | 1059.8 |
| 20260504203055 | 65 | 270 | 2.0 | 2.0 | 0.00 | 0.00 | 0.00 | 51 | 1060.0 |
| 20260504202054 | 65 | 230 | 11.0 | 14.0 | 0.00 | 0.00 | 0.00 | 51 | 1059.8 |
| 20260504201048 | 65 | 300 | 5.0 | 6.0 | 0.00 | 0.00 | 0.00 | 51 | 1059.8 |
| 20260504200047 | 65 | 252 | 8.0 | 10.0 | 0.00 | 0.00 | 0.00 | 51 | 1059.9 |
| 20260504195046 | 64 | 266 | 5.0 | 7.0 | 0.00 | 0.00 | 0.00 | 52 | 1060.0 |
| 20260504194043 | 64 | 256 | 3.0 | 5.0 | 0.00 | 0.00 | 0.00 | 52 | 1060.1 |
| 20260504193039 | 64 | 247 | 8.0 | 9.0 | 0.00 | 0.00 | 0.00 | 53 | 1060.0 |
| 20260504192035 | 63 | 226 | 5.0 | 6.0 | 0.00 | 0.00 | 0.00 | 55 | 1060.0 |
| 20260504191034 | 63 | 234 | 7.0 | 8.0 | 0.00 | 0.00 | 0.00 | 54 | 1060.3 |
| 20260504190032 | 64 | 241 | 10.0 | 11.0 | 0.00 | 0.00 | 0.00 | 53 | 1060.5 |
| 20260504185032 | 64 | 248 | 9.0 | 10.0 | 0.00 | 0.00 | 0.00 | 54 | 1060.5 |
| 20260504184028 | 63 | 278 | 2.0 | 2.0 | 0.00 | 0.00 | 0.00 | 56 | 1060.3 |
| 20260504183024 | 63 | 247 | 8.0 | 10.0 | 0.00 | 0.00 | 0.00 | 55 | 1060.7 |
| 20260504182024 | 61 | 256 | 7.0 | 7.0 | 0.00 | 0.00 | 0.00 | 59 | 1060.3 |
| 20260504181019 | 63 | 255 | 4.0 | 5.0 | 0.00 | 0.00 | 0.00 | 57 | 1060.7 |
| 20260504180016 | 62 | 224 | 4.0 | 6.0 | 0.00 | 0.00 | 0.00 | 58 | 1060.8 |
| 20260504175016 | 61 | 245 | 6.0 | 8.0 | 0.00 | 0.00 | 0.00 | 59 | 1060.9 |
| 20260504174016 | 62 | 242 | 7.0 | 9.0 | 0.00 | 0.00 | 0.00 | 59 | 1060.7 |
| 20260504173016 | 62 | 242 | 5.0 | 7.0 | 0.00 | 0.00 | 0.00 | 58 | 1060.8 |
| 20260504172014 | 60 | 234 | 1.0 | 2.0 | 0.00 | 0.00 | 0.00 | 60 | 1060.9 |
| 20260504171014 | 60 | 258 | 3.0 | 6.0 | 0.00 | 0.00 | 0.00 | 62 | 1060.7 |